• Join FlightAware (Why Join?)
  • Login
  • US Flag 
11:27AM EDT


 

Airport Tracker/Info


-or-


 

Live Flight TrackerFlight Track Log ✈ UPS2752 ✈ 22-Aug-2013 ✈ KSDF - KDFW

Flight Track Log - Related Links

Times and Time Zones

All times are in EDT time to prevent confusion due to time zone crossing. See the UPS2752 flight status page for this flight to view local times or setup timezone preferences in your user account.

Time Position Orientation Groundspeed Altitude Reporting Facility
EDT Latitude Longitude Course Direction KTS MPH feet Rate Location/Type
05:13PM 38.2270 -85.7700 328° Northwest 189 217 3,600  Level FlightAware
05:13PM 38.2510 -85.7900 327° Northwest 247 284 4,100 1,680 Climbing FlightAware
05:13PM 38.2680 -85.8070 322° Northwest 265 305 4,900 3,000 Climbing FlightAware
05:14PM 38.2740 -85.8200 300° West 267 307 5,600 4,080 Climbing FlightAware
05:14PM 38.2780 -85.8450 282° West 274 315 6,600 1,440 Climbing FlightAware
05:14PM 38.2780 -85.8810 270° West 274 315 6,600 3,720 Level FlightAware
05:14PM 38.2650 -85.8990 227° Southwest 292 336 8,800 6,780 Climbing FlightAware
05:15PM 38.2550 -85.9330 249° West 288 331 9,900 2,640 Climbing FlightAware
05:15PM 38.2520 -85.9690 264° West 304 350 10,800 2,160 Climbing FlightAware
05:16PM 38.2470 -86.0430 265° West 358 412 12,100 2,400 Climbing FlightAware
05:16PM 38.2440 -86.1190 267° West 378 435 13,600 1,440 Climbing FlightAware
05:17PM 38.2410 -86.2080 268° West 401 461 13,900 180 Climbing FlightAware
05:18PM 38.2260 -86.3200 260° West 401 461 13,900 120 Level FlightAware
05:18PM 38.2130 -86.3940 257° West 400 460 14,100 1,740 Climbing FlightAware
05:19PM 38.1810 -86.4880 247° West 415 478 16,100 3,000 Climbing FlightAware
05:20PM 38.1400 -86.5610 234° Southwest 417 480 18,100 1,500 Climbing FlightAware
05:20PM 38.1050 -86.6240 235° Southwest 417 480 18,100 2,100 Level FlightAware
05:21PM 38.0380 -86.7350 233° Southwest 442 509 21,100 3,360 Climbing FlightAware
05:22PM 37.9820 -86.8340 234° Southwest 456 525 23,000 2,160 Climbing FlightAware
05:22PM 37.9370 -86.9130 234° Southwest 460 529 23,900 1,800 Climbing FlightAware
05:23PM 37.9000 -86.9780 234° Southwest 465 535 25,000 2,220 Climbing FlightAware
05:23PM 37.8490 -87.0670 234° Southwest 472 543 26,500 2,100 Climbing FlightAware
05:24PM 37.8040 -87.1460 234° Southwest 479 551 27,700 2,100 Climbing FlightAware
05:25PM 37.7570 -87.2260 233° Southwest 480 552 29,100 2,340 Climbing FlightAware
05:25PM 37.7140 -87.3010 234° Southwest 478 550 30,400 2,400 Climbing FlightAware
05:26PM 37.6700 -87.3760 233° Southwest 475 547 31,700 1,320 Climbing FlightAware
05:26PM 37.6210 -87.4610 234° Southwest 473 544 32,000 240 Climbing FlightAware
05:27PM 37.5740 -87.5420 234° Southwest 475 547 32,000  Level FlightAware
05:28PM 37.5330 -87.6130 234° Southwest 475 547 32,000  Level FlightAware
05:28PM 37.4880 -87.6900 234° Southwest 475 547 32,000 540 Level FlightAware
05:29PM 37.4400 -87.7720 234° Southwest 468 539 32,700 1,380 Climbing FlightAware
05:29PM 37.3940 -87.8500 233° Southwest 458 527 33,700 1,080 Climbing FlightAware
05:30PM 37.3480 -87.9270 233° Southwest 460 529 34,000 240 Climbing FlightAware
05:30PM 37.3070 -87.9980 234° Southwest 461 531 34,000  Level FlightAware
05:31PM 37.2630 -88.0730 234° Southwest 462 532 34,000  Level FlightAware
05:32PM 37.2190 -88.1460 233° Southwest 462 532 34,000  Level FlightAware
05:32PM 37.1730 -88.2240 234° Southwest 463 533 34,000  Level FlightAware
05:33PM 37.1290 -88.2970 233° Southwest 463 533 34,000  Level FlightAware
05:33PM 37.0890 -88.3640 233° Southwest 463 533 34,000  Level FlightAware
05:34PM 37.0400 -88.4470 234° Southwest 465 535 34,000  Level FlightAware
05:35PM 36.9920 -88.5270 233° Southwest 465 535 34,000  Level FlightAware
05:35PM 36.9570 -88.5850 233° Southwest 465 535 34,000  Level FlightAware
05:36PM 36.9090 -88.6640 233° Southwest 465 535 34,000  Level FlightAware
05:36PM 36.8670 -88.7350 234° Southwest 466 536 34,000  Level FlightAware
05:37PM 36.8210 -88.8100 233° Southwest 466 536 34,000  Level FlightAware
05:37PM 36.7730 -88.8890 233° Southwest 467 537 34,000  Level FlightAware
05:38PM 36.7310 -88.9590 233° Southwest 468 539 34,000  Level FlightAware
05:39PM 36.6840 -89.0360 233° Southwest 469 540 34,000  Level FlightAware
05:39PM 36.6400 -89.1090 233° Southwest 468 539 34,000  Level FlightAware
05:40PM 36.5920 -89.1860 232° Southwest 469 540 34,000 60 Level FlightAware
05:40PM 36.5500 -89.2560 233° Southwest 469 540 34,100 60 Climbing FlightAware
05:41PM 36.5000 -89.3380 233° Southwest 469 540 34,100 -120 Level FlightAware
05:41PM 36.4550 -89.4100 232° Southwest 468 539 34,000 -120 Descending FlightAware
05:42PM 36.4070 -89.4880 233° Southwest 454 522 34,000  Level FlightAware
05:43PM 36.3520 -89.5750 232° Southwest 454 522 34,000  Level FlightAware
05:43PM 36.2990 -89.6630 233° Southwest 457 526 34,000  Level FlightAware
05:44PM 36.2410 -89.7570 233° Southwest 458 527 34,000  Level FlightAware
05:45PM 36.2010 -89.8200 232° Southwest 458 527 34,000  Level FlightAware
05:46PM 36.1610 -89.8830 232° Southwest 458 527 34,000  Level FlightAware
05:46PM 36.1210 -89.9470 232° Southwest 458 527 34,000  Level FlightAware
05:47PM 36.0440 -90.0710 232° Southwest 462 532 34,000  Level FlightAware
05:47PM 36.0060 -90.1420 237° Southwest 465 535 34,000  Level FlightAware
05:48PM 35.9680 -90.2240 240° Southwest 463 533 34,000  Level FlightAware
05:49PM 35.9150 -90.3340 239° Southwest 463 533 34,000  Level FlightAware
05:49PM 35.8810 -90.4050 239° Southwest 462 532 34,000  Level FlightAware
05:50PM 35.8440 -90.4820 239° Southwest 463 533 34,000  Level FlightAware
05:50PM 35.8100 -90.5510 239° Southwest 463 533 34,000  Level FlightAware
05:51PM 35.7760 -90.6200 239° Southwest 463 533 34,000  Level FlightAware
05:52PM 35.7420 -90.6900 239° Southwest 463 533 34,000  Level FlightAware
05:52PM 35.7090 -90.7590 240° Southwest 463 533 34,000  Level FlightAware
05:53PM 35.6650 -90.8470 238° Southwest 463 533 34,000  Level FlightAware
05:54PM 35.5890 -91.0090 240° Southwest 474 545 34,000  Level FlightAware
05:54PM 35.5510 -91.0880 239° Southwest 476 548 34,000  Level FlightAware
05:55PM 35.5120 -91.1680 239° Southwest 476 548 34,000  Level FlightAware
05:55PM 35.4690 -91.2550 239° Southwest 476 548 34,000  Level FlightAware
05:56PM 35.4230 -91.3480 239° Southwest 477 549 34,000  Level FlightAware
05:57PM 35.3840 -91.4250 238° Southwest 477 549 34,000  Level FlightAware
05:57PM 35.3360 -91.5270 240° Southwest 478 550 34,000  Level FlightAware
05:58PM 35.2970 -91.6030 238° Southwest 479 551 34,000  Level FlightAware
05:59PM 35.2480 -91.7020 239° Southwest 479 551 34,000  Level FlightAware
05:59PM 35.2090 -91.7780 238° Southwest 479 551 34,000  Level FlightAware
06:00PM 35.1630 -91.8720 239° Southwest 481 554 34,000  Level FlightAware
06:00PM 35.1270 -91.9450 239° Southwest 480 552 34,000  Level FlightAware
06:01PM 35.0900 -92.0180 238° Southwest 480 552 34,000  Level FlightAware
06:02PM 35.0540 -92.0880 238° Southwest 480 552 34,000  Level FlightAware
06:02PM 35.0180 -92.1590 238° Southwest 480 552 34,000  Level FlightAware
06:03PM 34.9820 -92.2290 238° Southwest 480 552 34,000  Level FlightAware
06:03PM 34.9450 -92.3010 238° Southwest 480 552 34,000  Level FlightAware
06:04PM 34.9090 -92.3710 238° Southwest 480 552 34,000  Level FlightAware
06:05PM 34.8740 -92.4400 238° Southwest 480 552 34,000  Level FlightAware
06:05PM 34.8380 -92.5100 238° Southwest 480 552 34,000  Level FlightAware
06:06PM 34.8020 -92.5800 238° Southwest 480 552 34,000  Level FlightAware
06:06PM 34.7660 -92.6500 238° Southwest 480 552 34,000  Level FlightAware
06:07PM 34.7300 -92.7200 238° Southwest 480 552 34,000  Level FlightAware
06:08PM 34.6940 -92.7910 238° Southwest 480 552 34,000  Level FlightAware
06:08PM 34.6600 -92.8570 238° Southwest 480 552 34,000  Level FlightAware
06:08PM 34.6960 -93.0950 280° West 34,000  Level FlightAware
06:09PM 34.6140 -93.1900 224° Southwest 488 562 34,000  Level FlightAware
06:10PM 34.5670 -93.2430 223° Southwest 487 560 34,000  Level FlightAware
06:10PM 34.5150 -93.3020 223° Southwest 485 558 34,000  Level FlightAware
06:11PM 34.4420 -93.3840 223° Southwest 485 558 34,000  Level FlightAware
06:11PM 34.3870 -93.4460 223° Southwest 485 558 34,000  Level FlightAware
06:12PM 34.3230 -93.5390 230° Southwest 481 554 34,000  Level FlightAware
06:13PM 34.2820 -93.6390 244° Southwest 466 536 34,000  Level FlightAware
06:13PM 34.2670 -93.7120 256° West 462 532 34,000  Level FlightAware
06:15PM 34.2430 -93.7970 251° West 462 532 34,000  Level FlightAware
06:15PM 34.2210 -93.8720 250° West 462 532 34,000  Level FlightAware
06:16PM 34.2000 -93.9470 251° West 462 532 34,000  Level FlightAware
06:16PM 34.1790 -94.0220 251° West 462 532 34,000  Level FlightAware
06:17PM 34.1570 -94.0970 251° West 462 532 34,000  Level FlightAware
06:18PM 34.0660 -94.4300 252° West 461 531 34,000  Level FlightAware
06:19PM 34.0300 -94.5560 251° West 461 531 34,000  Level FlightAware
06:20PM 34.0090 -94.6300 251° West 461 531 34,000  Level FlightAware
06:20PM 33.9870 -94.7050 251° West 461 531 34,000 -1,500 Level FlightAware
06:21PM 33.9490 -94.8370 251° West 465 535 32,300 -1,440 Descending FlightAware
06:22PM 33.9260 -94.9180 251° West 465 535 32,300 -960 Level FlightAware
06:22PM 33.8960 -95.0220 251° West 469 540 31,100 -1,560 Descending FlightAware
06:23PM 33.8710 -95.1080 251° West 470 541 30,500 -1,020 Descending FlightAware
06:23PM 33.8450 -95.1980 251° West 472 543 29,900 -1,020 Descending FlightAware
06:24PM 33.8230 -95.2740 251° West 476 548 29,400 -720 Descending FlightAware
06:25PM 33.7830 -95.4100 251° West 478 550 28,900 -2,100 Descending FlightAware
06:25PM 33.7540 -95.5110 251° West 478 550 26,200 -3,900 Descending FlightAware
06:26PM 33.7280 -95.5970 250° West 477 549 24,400 -2,340 Descending FlightAware
06:27PM 33.7010 -95.6820 249° West 443 510 23,500 -2,040 Descending FlightAware
06:27PM 33.6770 -95.7630 250° West 421 484 22,000 -3,180 Descending FlightAware
06:28PM 33.6580 -95.8280 251° West 424 488 20,100 -2,880 Descending FlightAware
06:28PM 33.6370 -95.9020 251° West 391 450 19,000 -2,340 Descending FlightAware
06:29PM 33.6160 -95.9740 251° West 377 434 17,400 -2,520 Descending FlightAware
06:29PM 33.5990 -96.0310 250° West 373 429 16,200 -2,160 Descending FlightAware
06:30PM 33.5770 -96.1060 251° West 363 418 15,000 -1,860 Descending FlightAware
06:31PM 33.5580 -96.1700 250° West 354 407 14,000 -1,740 Descending FlightAware
06:31PM 33.5330 -96.2370 246° West 344 396 12,900 -1,860 Descending FlightAware
06:32PM 33.4970 -96.2850 228° Southwest 342 394 11,800 -1,380 Descending FlightAware
06:32PM 33.4570 -96.3320 224° Southwest 317 365 11,300 -720 Descending FlightAware
06:33PM 33.4260 -96.3690 225° Southwest 298 343 11,000 -420 Descending FlightAware
06:34PM 33.3920 -96.4090 224° Southwest 298 343 10,900 -720 Descending FlightAware
06:34PM 33.3570 -96.4500 224° Southwest 297 342 10,200 -1,380 Descending FlightAware
06:34PM 33.3400 -96.4710 226° Southwest 293 337 9,700 -1,680 Descending FlightAware
06:35PM 33.3220 -96.4910 223° Southwest 292 336 9,200 -1,560 Descending FlightAware
06:35PM 33.3030 -96.5140 225° Southwest 291 335 8,700 -1,380 Descending FlightAware
06:35PM 33.2870 -96.5330 225° Southwest 287 330 8,400 -1,320 Descending FlightAware
06:36PM 33.2690 -96.5590 230° Southwest 284 327 7,900 -1,440 Descending FlightAware
06:36PM 33.2670 -96.5640 244° Southwest 283 326 7,800 -1,140 Descending FlightAware
06:36PM 33.2630 -96.5760 248° West 279 321 7,700 -1,200 Descending FlightAware
06:36PM 33.2600 -96.5940 259° West 278 320 7,400 -1,500 Descending FlightAware
06:36PM 33.2510 -96.6300 253° West 276 318 6,800 -1,500 Descending FlightAware
06:37PM 33.2490 -96.6460 262° West 275 316 6,500 -1,740 Descending FlightAware
06:37PM 33.2520 -96.6830 276° West 275 316 5,800 -1,380 Descending FlightAware
06:37PM 33.2540 -96.7130 275° West 270 311 5,500 -1,080 Descending FlightAware
06:38PM 33.2570 -96.7420 277° West 268 308 5,100 -780 Descending FlightAware
06:38PM 33.2600 -96.7700 277° West 273 314 5,000 -180 Descending FlightAware
06:38PM 33.2630 -96.8070 276° West 271 312 5,000  Level FlightAware
06:39PM 33.2650 -96.8350 275° West 269 310 5,000  Level FlightAware
06:39PM 33.2600 -96.8620 258° West 265 305 5,000  Level FlightAware
06:39PM 33.2480 -96.8940 246° West 274 315 5,000  Level FlightAware
06:40PM 33.2410 -96.9140 247° West 273 314 5,000  Level FlightAware
06:40PM 33.2310 -96.9430 248° West 253 291 5,000 -180 Level FlightAware
06:40PM 33.2230 -96.9650 247° West 233 268 4,900 -540 Descending FlightAware
06:41PM 33.2160 -96.9810 242° Southwest 227 261 4,700 -960 Descending FlightAware
06:41PM 33.2080 -96.9900 223° Southwest 225 259 4,500 -1,200 Descending FlightAware
06:41PM 33.1950 -96.9990 210° Southwest 220 253 4,200 -780 Descending FlightAware
06:41PM 33.1700 -97.0140 207° Southwest 223 257 4,000 -300 Descending FlightAware
06:42PM 33.1540 -97.0230 205° Southwest 221 254 4,000  Level FlightAware
06:42PM 33.1440 -97.0250 190° South 222 255 4,000 -240 Level FlightAware
06:42PM 33.1270 -97.0250 180° South 222 255 3,900 -720 Descending FlightAware
06:43PM 33.1000 -97.0250 180° South 224 258 3,500 -540 Descending FlightAware
06:43PM 33.0690 -97.0250 180° South 217 250 3,400 -600 Descending FlightAware
06:43PM 33.0550 -97.0250 180° South 212 244 3,100 -1,080 Descending FlightAware
06:44PM 33.0310 -97.0250 180° South 197 227 2,700 -1,080 Descending FlightAware
06:44PM 33.0130 -97.0250 180° South 177 204 2,300 -840 Descending FlightAware
06:45PM 32.9960 -97.0260 183° South 175 201 2,100 -840 Descending FlightAware
06:45PM 32.9780 -97.0260 180° South 177 204 1,700 -1,020 Descending FlightAware
06:45PM 32.9670 -97.0260 180° South 176 203 1,500 -300 Descending FlightAware
06:46PM 32.9490 -97.0260 180° South 176 203 1,500  Level FlightAware
06:54PM 32.8968 -97.0380 185° South  Level Estimated